Location: Pinhead Observatory
(34.4473°N, 118.1985°W)
Time: 10:57:43
(UTC-07:00)

CZ-4C R/B - Visible Passes

Search period start: 20 October 2014 00:00
Search period end: 30 October 2014 00:00
Orbit: 786 x 1217 km, 63.4° (Epoch: 19 October)

Date Brightness Start Highest point End Pass type
(mag) Time Alt. Az. Time Alt. Az. Time Alt. Az.
22 Oct 5.0 05:59:07 10° N 06:03:26 17° NE 06:07:56 10° E visible
23 Oct 4.4 06:31:37 10° NNW 06:37:48 32° NE 06:44:23 10° ESE visible
24 Oct 5.1 05:18:24 10° N 05:21:57 14° NE 05:25:37 10° ENE visible
25 Oct 4.6 05:50:36 10° N 05:56:26 27° NE 06:02:37 10° ESE visible
26 Oct 5.2 04:37:55 10° NNE 04:40:25 12° NE 04:42:59 10° ENE visible
26 Oct 3.6 06:23:36 10° NNW 06:30:30 54° NE 06:37:53 10° SE visible
27 Oct 4.8 05:09:37 10° N 05:15:02 23° NE 05:20:44 10° E visible
28 Oct 3.9 05:42:29 10° NNW 05:49:11 45° NE 05:56:22 10° SE visible
29 Oct 4.9 04:28:42 10° N 04:33:36 20° NE 04:38:44 10° E visible
29 Oct 2.9 06:15:51 10° NNW 06:23:00 89° ENE 06:30:40 10° SSE visible
29 Oct 4.0 19:48:41 10° SSE 19:49:36 14° SSE 19:49:36 14° SSE visible
